Погода в Леттеркенни

Ирландия     54°57′03″N   7°43′54″W
темп.,
°C
ветер,
м/с
пор.,
м/с
влажн.,
%
обл.,
%
осадки,
мм/ч
давл.,
гПа
погр.,
м
6 мая, чт
чт601:00−1з22855 0.1 101012
04:00−1з118560 0.0 100911
07:00+1з127485 0.1 100969
10:00+7с676144 0.4 10091549
13:00+8ссз685368 0.8 10101742
16:00+8ссз684893 0.1 10112036
19:00+6ссз577110 0.3 10121012
22:00+1зсз22895 0.2 101414
7 мая, пт
пт701:00+1з228657 0.2 101414
04:000з11875 0.0 101511
07:00+2зюз11785 0.0 101538
10:00+7ссз345846 0.1 10161386
13:00+9ссз3346100 0.2 10151945
16:00+9с3248100 0.1 10141550
19:00+7ссв4459100 0.1 1013625
22:00+4всв31176100 0.0 1011463
8 мая, сб
сб801:00+4вюв41183100 0.0 1007478
04:00+4вюв61291100 0.5 1002964
07:00+3вюв81798100 3.9 995913
10:00+5юв71497100 2.8 991971
13:00+7ю3697100 2.9 990353
16:00+14ююз4860100 0.1 9891680
19:00+13ююз2569100 0.3 988661
22:00+8юв1187100 0.2 98711
9 мая, вс
вс901:00+7ююв22978 1.1 98646
04:00+7ююв41095100 0.0 985696
07:00+8юв41194100 0.1 983697
10:00+10ююв61288100 0.3 9831425
13:00+12ююв6107296 0.7 9811391
16:00+11юв71187100 1.3 9801079
19:00+10юв71392100 3.3 980921
22:00+9ююв6129497 0.3 981734
10 мая, пн
пн1001:00+9ююв51193100 0.5 982647
04:00+8юв51192100 0.0 983558
07:00+8юв41091100 0.0 984630
10:00+9вюв4892100 0.3 986634
13:00+10юв4687100 0.8 987706
16:00+11юв248436 0.6 988590
19:00+9юв4896100 4.8 991578
22:00+8юв3995100 1.9 994496